Location: Chowchilla Mountain
(37.5599°N, 119.7546°W)
Time: 21:57:50
(UTC+00:00)

Cosmos 1943 Rocket - Pass Details

Date: 05 August 2024
Orbit: 813 x 841 km, 71.0° (Epoch: 08 September)

Event Time Altitude Azimuth Distance (km) Brightness Sun altitude
Rises 12:20:08 0° 337° (NNW) 3,349 5.4 -9.2°
Reaches altitude 10° 12:22:34 10° 338° (NNW) 2,411 4.7 -8.8°
Maximum altitude 12:28:06 89° 67° (ENE) 818 2.2 -7.8°
Drops below altitude 10° 12:33:35 10° 159° (SSE) 2,392 4.5 -6.8°
Sets 12:35:59 0° 159° (SSE) 3,320 5.2 -6.4°
